Location: *
(51.4660°N, 0.3360°W)
Time: 14:02:08
(UTC+00:00)

Cosmos 2227 Rocket - Pass Details

Date: 19 September 2019
Orbit: 837 x 847 km, 71.0° (Epoch: 21 October)

Event Time Altitude Azimuth Distance (km) Brightness Sun altitude
Rises 22:16:00 0° 254° (WSW) 3,395 5.5 -33.2°
Reaches altitude 10° 22:18:55 10° 268° (W) 2,465 4.9 -33.4°
Maximum altitude 22:23:28 24° 322° (NW) 1,677 4.3 -33.8°
Drops below altitude 10° 22:28:03 10° 16° (NNE) 2,479 5.1 -34.1°
Sets 22:31:00 0° 30° (NNE) 3,419 5.8 -34.3°
